Regional Weather Roundup
Issued by NWS Sioux Falls, SD

Home | Current Version | Previous Version | Text Only | Print | Product List | Glossary Off
Versions: 1 2 3 4 5 6 7 8 9 10 11 12 13 14 15 16 17 18 19 20 21 22 23 24 25 26 27 28 29 30 31 32 33 34 35 36 37 38 39 40 41 42 43 44 45 46 47 48 49 50

000
ASUS43 KFSD 250202
RWRFSD

WEATHER ROUNDUP FOR SE SOUTH DAKOTA/SW MINNESOTA/NW IOWA
NATIONAL WEATHER SERVICE SIOUX FALLS SD
900 PM CDT THU MAY 24 2018

NOTE: "FAIR" INDICATES FEW OR NO CLOUDS BELOW 12,000 FEET WITH NO
SIGNIFICANT WEATHER AND OR OBSTRUCTIONS TO VISIBILITY.


SDZ038>040-050-052>070-250300-
SOUTHEAST SOUTH DAKOTA

CITY           SKY/WX    TMP DP  RH WIND       PRES   REMARKS
BROOKINGS      CLOUDY    75  64  68 S8        29.85S
CHAMBERLAIN    CLOUDY    73  68  83 S5        29.84S
HURON          PTCLDY    76  64  66 S8        29.81R
MADISON        FAIR      72  59  64 SW13      29.86S
MITCHELL       CLEAR     74  58  57 W6        29.83S
SIOUX FALLS    CLOUDY    70  61  73 S6        29.83F
WINNER         FAIR      74  57  55 S13       29.86S
YANKTON        CLOUDY    74  62  66 SE7       29.85F
$$

MNZ071-072-080-081-089-090-097-098-250300-
SOUTHWEST MINNESOTA

CITY           SKY/WX    TMP DP  RH WIND       PRES   REMARKS
FAIRMONT       CLOUDY    76  63  64 S23G35    29.90R
JACKSON        PTCLDY    77  59  53 SW12      29.91R
LUVERNE        MOCLDY    73  52  46 S5        29.85F
MARSHALL       CLOUDY    80  60  50 S12       29.82F
MONTEVIDEO     CLOUDY    79  68  69 SW7       29.80F
PIPESTONE      CLOUDY    73  59  60 S15       29.84F
REDWOOD FALLS  CLOUDY    78  60  53 SW9       29.82F
TRACY          CLOUDY    82  61  49 S20G29    29.83F
WINDOM         CLOUDY    81  52  36 S18G28    29.86F
WORTHINGTON    TSTM      71  59  65 SW16G28   29.91R
$$

IAZ001>003-012>014-020>022-031-032-NEZ013-014-SDZ071-250300-
NORTHWEST IOWA

CITY           SKY/WX    TMP DP  RH WIND       PRES   REMARKS
CHEROKEE       CLEAR     80  64  57 S9        29.89S
DENISON        MOCLDY    81  64  57 S8        29.93R
ESTHERVILLE    PTCLDY    72  65  78 SE23G35   29.90R
ORANGE CITY    CLOUDY    77  61  57 CALM      29.89F
SHELDON        PTCLDY    75  64  69 N7        29.88F
SIOUX CITY     CLEAR     82  61  48 S13       29.87S
SPENCER        PTCLDY    80  62  54 SW9       29.89S
STORM LAKE     CLEAR     77  63  61 S13       29.92S
$$

ABBREVIATIONS USED IN REMARKS
   TC - TEMPERATURE IN CELSIUS
  WCI - WIND CHILL INDEX
   HX - HEAT INDEX
  VSB - VISIBILITY





USA.gov is the U.S. government's official web portal to all federal, state and local government web resources and services.